This is the latest recevied weather packets stored in our database for station/object W5YIU-13. If no packets are shown the sender has not sent any weather packets the latest 1 day(s).
| Time | Temp. | Humidity | Pressure | Rain* | Wind** | Luminosity | Snow |
|---|---|---|---|---|---|---|---|
| 1778163587 | 17.78° C | 86% | 1010.3 hPa | 0 mm | - | 143 W/m² | - |
| 1778163288 | 17.78° C | 86% | 1010.2 hPa | 0 mm | - | 189 W/m² | - |
| 1778161789 | 17.78° C | 88% | 1010.8 hPa | 0 mm | - | 78 W/m² | - |
| 1778160411 | 17.78° C | 90% | 1010.7 hPa | 0 mm | - | 51 W/m² | - |
| 1778159133 | 17.78° C | 89% | 1010.9 hPa | 0 mm | - | 21 W/m² | - |
| 1778157934 | 17.78° C | 89% | 1010.8 hPa | 0 mm | - | 21 W/m² | - |
| 1778157018 | 17.78° C | 89% | 1010.4 hPa | 0 mm | - | 25 W/m² | - |
| 1778156704 | 17.78° C | 89% | 1010.1 hPa | 0 mm | - | 28 W/m² | - |
| 1778154874 | 18.33° C | 89% | 1009.5 hPa | 0 mm | - | 5 W/m² | - |
| 1778154263 | 18.33° C | 89% | 1009.5 hPa | 0 mm | - | 2 W/m² | - |
| 1778153958 | 18.33° C | 89% | 1009.4 hPa | 0 mm | - | 0 W/m² | - |
| 1778153030 | 18.89° C | 89% | 1008.9 hPa | 0 mm | - | 0 W/m² | - |
| 1778152100 | 18.89° C | 88% | 1009.1 hPa | 0 mm | - | 0 W/m² | - |
| 1778151801 | 18.89° C | 88% | 1009.1 hPa | 0 mm | - | 0 W/m² | - |
| 1778151500 | 18.89° C | 89% | 1009 hPa | 0 mm | - | 0 W/m² | - |
| 1778150899 | 18.89° C | 88% | 1008.7 hPa | 0 mm | - | 0 W/m² | - |
| 1778149999 | 18.89° C | 88% | 1008.6 hPa | 0 mm | - | 0 W/m² | - |
| 1778149400 | 18.89° C | 88% | 1008.6 hPa | 0 mm | - | 0 W/m² | - |
| 1778148456 | 18.89° C | 88% | 1008.2 hPa | 0 mm | - | 0 W/m² | - |
| 1778147841 | 18.89° C | 88% | 1008.3 hPa | 0 mm | - | 0 W/m² | - |
| 1778147542 | 18.89° C | 88% | 1008.1 hPa | 0 mm | - | 0 W/m² | - |
| 1778147241 | 18.89° C | 88% | 1008.1 hPa | 0 mm | - | 0 W/m² | - |
| 1778146941 | 18.89° C | 88% | 1008.2 hPa | 0 mm | - | 0 W/m² | - |
| 1778146040 | 18.89° C | 88% | 1007.7 hPa | 0 mm | - | 0 W/m² | - |
| 1778145112 | 18.89° C | 87% | 1007.9 hPa | 0 mm | - | 0 W/m² | - |
* Rain latest hour (hover to see other rain measurements)
** Current wind speed in m/s (hover to see current wind gust speed)